Volver al catálogo

CZ-6A DEB

ActivoSSO
NORAD 55544·DEBRIS·🇨🇳 China

Lanzado Nov 11, 2022 desde Taiyuan Satellite Launch Center

Loading…

Próximos Pases (próximas 24 horas)

TLE

ActualizadoSource: Space-Track

Época: Sep 14, 2026, 11:49 UTC

1 55544U 22151YS  26257.49257963  .00000792  00000-0  48086-3 0  9998
2 55544  98.9570 264.2364 0079438 126.5018 234.3502 14.07605350191397

Sigue CZ-6A DEB en tiempo real con AllMySat

Download on the App Store